Regional Weather Roundup
Issued by NWS

Home | Current Version | Previous Version | Text Only | Print | Product List | Glossary On
Versions: 1 2 3 4 5 6 7 8 9 10 11 12 13 14 15 16 17 18 19 20 21 22 23 24 25 26 27 28 29 30 31 32 33 34 35 36 37 38 39 40 41 42 43 44 45 46 47 48 49 50
475
ASUS43 KLMK 240510
RWRKY
KENTUCKY REGIONAL WEATHER ROUNDUP
NATIONAL WEATHER SERVICE LOUISVILLE KY
100 AM EDT SUN JUL 24 2016

NOTE "FAIR" INDICATES FEW OR NO CLOUDS BELOW 12,000 FEET
WITH NO SIGNIFICANT WEATHER AND/OR OBSTRUCTIONS TO VISIBILITY.

KYZ001>023-026-027-061>063-070>075-240600-
WESTERN AND SOUTH CENTRAL KENTUCKY

CITY           SKY/WX    TMP DP  RH WIND       PRES   REMARKS
PADUCAH        CLOUDY    79  75  87 S3        29.95F
HENDERSON      CLEAR     79  73  83 S3        29.95F
OWENSBORO      CLEAR     82  79  91 CALM      29.97F HX  92
HOPKINSVILLE   PTCLDY    76  75  95 CALM      29.97F
BOWLING GREEN  CLEAR     81  75  82 S3        30.00R
GLASGOW        CLEAR     77  75  92 CALM      30.01R
$$

KYZ024-025-028>034-038-045-046-053-240600-
NORTH CENTRAL KENTUCKY

CITY           SKY/WX    TMP DP  RH WIND       PRES   REMARKS
LOUISVILLE/SDF PTCLDY    85  74  69 S3        29.97F HX  92
LOUISVILLE/LOU PTCLDY    85  74  69 CALM      29.98F HX  92
FORT KNOX      CLEAR     77  75  93 CALM      29.98F
$$

KYZ035>037-039>044-047>052-055>060-089>105-240600-
NORTHEAST KENTUCKY

CITY           SKY/WX    TMP DP  RH WIND       PRES   REMARKS
LEXINGTON      CLEAR     79  73  82 CALM      30.02F
COVINGTON      PTCLDY    76  73  91 CALM      30.00F
FRANKFORT      CLEAR     78  73  84 CALM      30.00F
$$

KYZ054-064>069-076>088-106>120-240600-
SOUTHEAST KENTUCKY

CITY           SKY/WX    TMP DP  RH WIND       PRES   REMARKS
JACKSON        CLEAR     77  71  82 CALM      30.06S
LONDON         CLEAR     76  70  82 CALM      30.05F
SOMERSET       MOCLDY    73  72  94 CALM      30.05F
MIDDLESBORO    CLOUDY    73  73 100 CALM      30.08S
MONTICELLO     PTCLDY   N/A N/A N/A NE7       30.06S
$$





USA.gov is the U.S. government's official web portal to all federal, state and local government web resources and services.